Weather History for KVYS - December, 2012

Change the Weather History Date:

Monday, December 31, 2012

  Actual Average Record
Temperature  
Mean Temperature 28 °F -  
Max Temperature 36 °F 29 °F 57 °F (2004)
Min Temperature 21 °F 13 °F -18 °F (1976)
Degree Days  
Heating Degree Days 36    
Moisture  
Dew Point 22 °F    
Average Humidity 74    
Maximum Humidity 83    
Minimum Humidity 64    
Precipitation  
Precipitation 0.00 in - - ()
Sea Level Pressure  
Sea Level Pressure 30.08 in    
Wind  
Wind Speed 15 mph (West)    
Max Wind Speed 20 mph    
Max Gust Speed 25 mph    
Visibility 10 miles    
Events      
Averages and records for this station are not official NWS values.
T = Trace of Precipitation, MM = Missing Value Source: NWS Daily Summary

Daily Weather History Graph

Daily Weather History Graph

Search for Another Location

Airport or City:

Trip Planner

Search our weather history database for the weather conditions in past years. The results will help you decide how hot, cold, wet, or windy it might be!

Date:

Astronomy

Dec. 31, 2012 Rise Set
Actual Time 7:22 AM CST 4:37 PM CST
Civil Twilight 6:51 AM CST 5:08 PM CST
Nautical Twilight 6:16 AM CST 5:43 PM CST
Astronomical Twilight 5:43 AM CST 6:16 PM CST
Moon 8:10 PM CST (12/31) 9:01 AM CST (12/31)
Length of Visible Light 10h 17m
Length of Day
9h 14m
Waning Gibbous, 90% of the Moon is Illuminated
Dec 31
Waning Gibbous
Jan 4
Last Quarter
Jan 11
New
Jan 18
First Quarter
Jan 26
Full

Hourly Weather History & Observations

Time (CST) Temp. Windchill Dew Point Humidity Pressure Visibility Wind Dir Wind Speed Gust Speed Precip Events Conditions
12:15 AM 34.7 °F 24.3 °F 25.9 °F 70% 30.06 in 10.0 mi SSW 17.3 mph 21.9 mph N/A   Clear
12:35 AM 35.1 °F 24.5 °F 25.7 °F 69% 30.05 in 10.0 mi SW 18.4 mph 21.9 mph N/A   Clear
12:55 AM 35.2 °F 25.0 °F 25.7 °F 68% 30.05 in 10.0 mi SW 17.3 mph 21.9 mph N/A   Clear
1:15 AM 35.8 °F 25.1 °F 25.2 °F 65% 30.05 in 10.0 mi SW 19.6 mph 24.2 mph N/A   Clear
1:35 AM 36.0 °F 25.3 °F 25.3 °F 65% 30.05 in 10.0 mi SW 19.6 mph 24.2 mph N/A   Clear
1:55 AM 36.0 °F 25.6 °F 25.0 °F 64% 30.05 in 10.0 mi SW 18.4 mph - N/A   Clear
2:15 AM 35.8 °F 25.1 °F 24.8 °F 64% 30.06 in 10.0 mi SW 19.6 mph - N/A   Clear
2:35 AM 35.6 °F 25.5 °F 24.8 °F 65% 30.05 in 10.0 mi SW 17.3 mph 24.2 mph N/A   Clear
2:55 AM 35.6 °F 25.9 °F 24.8 °F 65% 30.05 in 10.0 mi SW 16.1 mph - N/A   Clear
3:15 AM 35.6 °F 25.5 °F 24.8 °F 65% 30.05 in 10.0 mi SW 17.3 mph 21.9 mph N/A   Clear
3:35 AM 35.6 °F 25.9 °F 24.8 °F 65% 30.06 in 10.0 mi SW 16.1 mph 25.3 mph N/A   Clear
3:55 AM 35.6 °F 25.9 °F 24.8 °F 65% 30.06 in 10.0 mi SW 16.1 mph - N/A   Clear
4:15 AM 35.6 °F 25.9 °F 24.8 °F 65% 30.05 in 10.0 mi WSW 16.1 mph 24.2 mph N/A   Clear
4:35 AM 36.0 °F 26.0 °F 24.8 °F 64% 30.05 in 10.0 mi WSW 17.3 mph 23.0 mph N/A   Scattered Clouds
4:55 AM 36.0 °F 26.3 °F 24.8 °F 64% 30.04 in 10.0 mi WSW 16.1 mph 23.0 mph N/A   Overcast
5:15 AM 35.8 °F 26.9 °F 24.8 °F 64% 30.04 in 10.0 mi WSW 13.8 mph - N/A   Scattered Clouds
5:35 AM 35.6 °F 27.1 °F 25.2 °F 66% 30.03 in 10.0 mi WSW 12.7 mph - N/A   Clear
5:55 AM 35.6 °F 26.2 °F 25.0 °F 65% 30.03 in 10.0 mi WSW 15.0 mph 20.7 mph N/A   Clear
6:15 AM 35.6 °F 26.6 °F 25.3 °F 66% 30.03 in 10.0 mi WSW 13.8 mph 19.6 mph N/A   Clear
6:35 AM 35.6 °F 26.6 °F 25.3 °F 66% 30.04 in 10.0 mi WSW 13.8 mph - N/A   Clear
6:55 AM 36.0 °F 26.0 °F 25.3 °F 65% 30.05 in 10.0 mi WSW 17.3 mph - N/A   Scattered Clouds
7:15 AM 35.8 °F 27.3 °F 25.5 °F 66% 30.05 in 10.0 mi WSW 12.7 mph 19.6 mph N/A   Mostly Cloudy
7:35 AM 35.6 °F 25.9 °F 25.7 °F 67% 30.05 in 10.0 mi WSW 16.1 mph 20.7 mph N/A   Overcast
7:55 AM 35.6 °F 27.5 °F 26.1 °F 68% 30.05 in 10.0 mi West 11.5 mph - N/A   Mostly Cloudy
8:15 AM 35.1 °F 25.9 °F 26.4 °F 71% 30.05 in 10.0 mi West 13.8 mph - N/A   Mostly Cloudy
8:35 AM 34.7 °F 25.1 °F 26.8 °F 73% 30.05 in 10.0 mi West 15.0 mph - N/A   Mostly Cloudy
8:55 AM 34.3 °F 25.5 °F 27.1 °F 75% 30.05 in 10.0 mi West 12.7 mph 16.1 mph N/A   Scattered Clouds
9:15 AM 33.1 °F 23.0 °F 25.0 °F 72% 30.06 in 10.0 mi West 15.0 mph - N/A   Scattered Clouds
9:35 AM 32.9 °F 22.8 °F 25.2 °F 73% 30.07 in 10.0 mi West 15.0 mph - N/A   Scattered Clouds
9:55 AM 32.5 °F 24.8 °F 25.3 °F 75% 30.07 in 10.0 mi West 9.2 mph - N/A   Mostly Cloudy
10:15 AM 32.0 °F 23.0 °F 25.5 °F 77% 30.08 in 10.0 mi West 11.5 mph - N/A   Overcast
10:35 AM 31.8 °F 22.8 °F 23.2 °F 70% 30.09 in 10.0 mi West 11.5 mph - N/A   Overcast
10:55 AM 31.6 °F 22.1 °F 23.5 °F 72% 30.08 in 10.0 mi West 12.7 mph 18.4 mph N/A   Mostly Cloudy
11:15 AM 31.1 °F 21.4 °F 23.9 °F 75% 30.08 in 10.0 mi West 12.7 mph 18.4 mph N/A   Scattered Clouds
11:35 AM 30.2 °F 19.3 °F 23.0 °F 75% 30.08 in 10.0 mi West 15.0 mph 18.4 mph N/A   Overcast
11:55 AM 29.7 °F 19.6 °F 22.8 °F 76% 30.08 in 10.0 mi West 12.7 mph - N/A   Overcast
12:15 PM 29.1 °F 19.4 °F 22.6 °F 77% 30.06 in 10.0 mi WNW 11.5 mph - N/A   Overcast
12:35 PM 28.8 °F 17.9 °F 22.6 °F 78% 30.06 in 10.0 mi West 13.8 mph 18.4 mph N/A   Overcast
12:55 PM 28.0 °F 17.0 °F 21.2 °F 76% 30.06 in 10.0 mi West 13.8 mph 18.4 mph N/A   Overcast
1:15 PM 28.0 °F 17.5 °F 21.7 °F 77% 30.05 in 10.0 mi WNW 12.7 mph 17.3 mph N/A   Overcast
1:35 PM 27.9 °F 18.4 °F 21.4 °F 77% 30.05 in 10.0 mi WNW 10.4 mph - N/A   Overcast
1:55 PM 27.5 °F 15.9 °F 21.2 °F 77% 30.06 in 10.0 mi WNW 15.0 mph - N/A   Overcast
2:15 PM 27.1 °F 16.4 °F 21.0 °F 78% 30.06 in 10.0 mi WNW 12.7 mph - N/A   Overcast
2:35 PM 26.2 °F 14.7 °F 20.1 °F 78% 30.06 in 10.0 mi WNW 13.8 mph - N/A   Mostly Cloudy
2:55 PM 26.1 °F 15.0 °F 19.9 °F 78% 30.06 in 10.0 mi WNW 12.7 mph - N/A   Mostly Cloudy
3:15 PM 25.7 °F 14.6 °F 19.8 °F 78% 30.08 in 10.0 mi WNW 12.7 mph - N/A   Overcast
3:35 PM 24.6 °F 12.2 °F 18.0 °F 76% 30.07 in 10.0 mi WNW 15.0 mph - N/A   Overcast
3:55 PM 24.3 °F 13.3 °F 17.8 °F 76% 30.08 in 10.0 mi NW 11.5 mph - N/A   Overcast
4:15 PM 23.9 °F 12.9 °F 18.0 °F 78% 30.07 in 10.0 mi WNW 11.5 mph - N/A   Overcast
4:35 PM 23.0 °F 11.7 °F 17.2 °F 79% 30.08 in 10.0 mi WNW 11.5 mph - N/A   Overcast
4:55 PM 23.0 °F 12.4 °F 17.4 °F 79% 30.08 in 10.0 mi WNW 10.4 mph - N/A   Overcast
5:15 PM 22.6 °F 11.3 °F 16.7 °F 78% 30.08 in 10.0 mi WNW 11.5 mph - N/A   Overcast
5:35 PM 21.9 °F 11.7 °F 16.7 °F 80% 30.09 in 10.0 mi WNW 9.2 mph - N/A   Scattered Clouds
5:55 PM 21.9 °F 12.5 °F 16.7 °F 80% 30.09 in 10.0 mi WNW 8.1 mph - N/A   Mostly Cloudy
6:15 PM 21.6 °F 11.3 °F 16.5 °F 81% 30.11 in 10.0 mi WNW 9.2 mph - N/A   Scattered Clouds
6:35 PM 21.2 °F 10.9 °F 16.5 °F 82% 30.12 in 10.0 mi WNW 9.2 mph - N/A   Clear
6:55 PM 21.4 °F 9.7 °F 16.7 °F 82% 30.11 in 10.0 mi WNW 11.5 mph - N/A   Mostly Cloudy
7:15 PM 21.2 °F 12.6 °F 16.5 °F 82% 30.12 in 10.0 mi WNW 6.9 mph - N/A   Overcast
7:35 PM 21.2 °F 11.7 °F 16.3 °F 82% 30.11 in 10.0 mi WNW 8.1 mph - N/A   Mostly Cloudy
7:55 PM 21.2 °F 10.9 °F 16.5 °F 82% 30.11 in 10.0 mi NW 9.2 mph - N/A   Scattered Clouds
8:15 PM 21.2 °F 11.7 °F 16.7 °F 83% 30.12 in 10.0 mi NW 8.1 mph - N/A   Mostly Cloudy
8:35 PM 21.4 °F 11.9 °F 16.9 °F 83% 30.11 in 10.0 mi NW 8.1 mph - N/A   Overcast
8:55 PM 21.9 °F 12.5 °F 17.4 °F 83% 30.12 in 10.0 mi NW 8.1 mph - N/A   Overcast
9:15 PM 22.1 °F 13.7 °F 17.4 °F 82% 30.13 in 10.0 mi NW 6.9 mph - N/A   Overcast
9:35 PM 22.5 °F 12.4 °F 17.1 °F 80% 30.12 in 10.0 mi NNW 9.2 mph - N/A   Overcast
9:55 PM 22.6 °F 11.9 °F 16.7 °F 78% 30.14 in 10.0 mi NNW 10.4 mph - N/A   Overcast
10:15 PM 22.8 °F 14.5 °F 16.5 °F 77% 30.14 in 10.0 mi NNW 6.9 mph - N/A   Overcast
10:35 PM 22.6 °F 13.4 °F 16.2 °F 76% 30.15 in 10.0 mi NNW 8.1 mph - N/A   Overcast
10:55 PM 22.6 °F 10.7 °F 15.8 °F 75% 30.15 in 10.0 mi NNW 12.7 mph - N/A   Overcast
11:15 PM 22.6 °F 11.3 °F 15.8 °F 75% 30.15 in 10.0 mi North 11.5 mph - N/A   Overcast
11:35 PM 22.6 °F 11.3 °F 16.2 °F 76% 30.14 in 10.0 mi North 11.5 mph - N/A   Overcast
11:55 PM 22.1 °F 10.6 °F 15.4 °F 76% 30.14 in 10.0 mi North 11.5 mph - N/A   Overcast